Auburn-Lewiston, ME

4:53 PM EST on November 20, 2019 (GMT -0500)
Auburn-Lewiston Municipal

Weather History for KLEW - October, 2019

Change the Weather History Date:

Monday, October 21, 2019

  Actual Average Record
Temperature  
Mean Temperature 51 °F -  
Max Temperature 63 °F 52 °F 73 °F (2017)
Min Temperature 37 °F 33 °F 26 °F (2002)
Degree Days  
Heating Degree Days 14    
Growing Degree Days 1 (Base 50)    
Moisture  
Dew Point 43 °F    
Average Humidity 89    
Maximum Humidity 100    
Minimum Humidity 48    
Precipitation  
Precipitation 0.00 in - - ()
Sea Level Pressure  
Sea Level Pressure 30.14 in    
Wind  
Wind Speed 2 mph (NNE)    
Max Wind Speed 7 mph    
Max Gust Speed -    
Visibility 7 miles    
Events Fog , Rain    
Averages and records for this station are not official NWS values.
T = Trace of Precipitation, MM = Missing Value Source: NWS Daily Summary

Daily Weather History Graph

Daily Weather History Graph

Search for Another Location

Airport or City:

Astronomy

Oct. 21, 2019 Rise Set
Actual Time 7:03 AM EDT 5:47 PM EDT
Civil Twilight 6:33 AM EDT 6:17 PM EDT
Nautical Twilight 5:59 AM EDT 6:50 PM EDT
Astronomical Twilight 5:26 AM EDT 7:24 PM EDT
Moon 11:52 PM EDT (10/21) 2:25 PM EDT (10/21)
Length of Visible Light 11h 43m
Length of Day
10h 44m
Waning Gibbous, 48% of the Moon is Illuminated
Oct 21
Waning Gibbous
Oct 27
New
Nov 4
First Quarter
Nov 12
Full
Nov 19
Last Quarter

Hourly Weather History & Observations

Time (EDT) Temp. Windchill Dew Point Humidity Pressure Visibility Wind Dir Wind Speed Gust Speed Precip Events Conditions
12:56 AM 46.0 °F 43.9 °F 44.1 °F 93% 30.09 in 10.0 mi SE 4.6 mph - N/A   Overcast
1:56 AM 46.0 °F 44.8 °F 44.1 °F 93% 30.10 in 10.0 mi NNW 3.5 mph - N/A   Overcast
2:43 AM 46.4 °F 45.2 °F 44.6 °F 93% 30.09 in 10.0 mi North 3.5 mph - N/A   Overcast
2:56 AM 46.0 °F - 45.0 °F 96% 30.11 in 10.0 mi Calm Calm - N/A   Overcast
3:13 AM 46.4 °F - 44.6 °F 93% 30.08 in 10.0 mi Calm Calm - N/A   Overcast
3:56 AM 45.0 °F - 44.1 °F 97% 30.11 in 10.0 mi Calm Calm - N/A   Overcast
4:56 AM 44.1 °F - 43.0 °F 96% 30.12 in 10.0 mi Calm Calm - N/A   Overcast
5:14 AM 44.6 °F - 44.6 °F 100% 30.09 in 10.0 mi Calm Calm - N/A   Overcast
5:43 AM 44.6 °F 43.1 °F 44.6 °F 100% 30.10 in 9.0 mi North 3.5 mph - N/A   Scattered Clouds
5:56 AM 44.1 °F - 44.1 °F 100% 30.12 in 7.0 mi Calm Calm - N/A   Clear
6:28 AM 42.8 °F - 42.8 °F 100% 30.11 in 1.8 mi Calm Calm - N/A   Clear
6:36 AM 41.0 °F - 41.0 °F 100% 30.11 in 0.8 mi Calm Calm - N/A   Clear
6:51 AM 41.0 °F - 41.0 °F 100% 30.11 in 0.5 mi Calm Calm - 0.00 in Fog , Rain Light Rain
6:56 AM 41.0 °F - 41.0 °F 100% 30.14 in 0.8 mi Calm Calm - 0.00 in   Clear
7:15 AM 39.2 °F - 39.2 °F 100% 30.12 in 0.2 mi Calm Calm - N/A Fog Fog
7:23 AM 41.0 °F - 41.0 °F 100% 30.13 in 0.8 mi Calm Calm - N/A   Mist
7:27 AM 41.0 °F - 41.0 °F 100% 30.13 in 2.0 mi Calm Calm - N/A   Partly Cloudy
7:35 AM 41.0 °F - 41.0 °F 100% 30.13 in 5.0 mi Calm Calm - N/A   Partly Cloudy
7:39 AM 41.0 °F - 41.0 °F 100% 30.13 in 0.8 mi Calm Calm - N/A   Mist
7:42 AM 41.0 °F - 41.0 °F 100% 30.14 in 0.2 mi Calm Calm - N/A Fog Fog
7:53 AM 42.8 °F - 42.8 °F 100% 30.14 in 0.5 mi Calm Calm - 0.00 in Fog , Rain Light Rain
7:56 AM 42.1 °F - 42.1 °F 100% 30.17 in 0.8 mi Calm Calm - 0.00 in Rain Light Rain
7:58 AM 42.8 °F - 42.8 °F 100% 30.14 in 3.0 mi Calm Calm - N/A   Scattered Clouds
8:56 AM 46.0 °F - 45.0 °F 96% 30.17 in 10.0 mi Calm Calm - N/A   Clear
9:56 AM 51.1 °F - 46.0 °F 83% 30.15 in 10.0 mi NNW 3.5 mph - N/A   Clear
10:56 AM 55.0 °F - 45.0 °F 69% 30.16 in 10.0 mi NNE 6.9 mph - N/A   Clear
11:56 AM 57.9 °F - 45.0 °F 62% 30.15 in 10.0 mi NNE 5.8 mph - N/A   Clear
12:56 PM 60.1 °F - 44.1 °F 55% 30.14 in 10.0 mi North 5.8 mph - N/A   Clear
1:56 PM 61.0 °F - 43.0 °F 52% 30.13 in 10.0 mi Variable 6.9 mph - N/A   Clear
2:56 PM 63.0 °F - 44.1 °F 50% 30.12 in 10.0 mi NNE 5.8 mph - N/A   Clear
3:56 PM 63.0 °F - 43.0 °F 48% 30.13 in 10.0 mi North 5.8 mph - N/A   Clear
4:56 PM 63.0 °F - 44.1 °F 50% 30.14 in 10.0 mi East 4.6 mph - N/A   Clear
5:56 PM 57.9 °F - 44.1 °F 60% 30.16 in 10.0 mi East 6.9 mph - N/A   Clear
6:56 PM 54.0 °F - 46.0 °F 75% 30.19 in 10.0 mi SSE 5.8 mph - N/A   Clear
7:56 PM 48.0 °F - 45.0 °F 89% 30.20 in 10.0 mi SE 4.6 mph - N/A   Clear
8:56 PM 46.0 °F - 45.0 °F 96% 30.19 in 10.0 mi Calm Calm - N/A   Clear
9:56 PM 43.0 °F - 42.1 °F 97% 30.23 in 10.0 mi Calm Calm - N/A   Clear
10:56 PM 39.9 °F - 39.0 °F 97% 30.23 in 9.0 mi Calm Calm - N/A   Clear
11:23 PM 39.2 °F - 39.2 °F 100% 30.19 in 1.8 mi Calm Calm - N/A   Scattered Clouds
11:31 PM 39.2 °F - 37.4 °F 93% 30.19 in 1.0 mi Calm Calm - 0.00 in Rain Light Rain
11:34 PM 39.2 °F - 37.4 °F 93% 30.19 in 2.0 mi Calm Calm - 0.00 in Rain Light Rain
11:41 PM 39.2 °F - 37.4 °F 93% 30.18 in 10.0 mi Calm Calm - 0.00 in   Partly Cloudy
11:56 PM 37.0 °F - 36.0 °F 96% 30.21 in 8.0 mi Calm Calm - 0.00 in   Clear